Regional Weather Roundup
Issued by NWS Charleston, SC

Current Version | Previous Version | Graphics & Text | Print | Product List | Glossary On
Versions: 1 2 3 4 5 6 7 8 9 10 11 12 13 14 15 16 17 18 19 20 21 22 23 24 25 26 27 28 29 30 31 32 33 34 35 36 37 38 39 40 41 42 43 44 45 46 47 48 49 50
000
ASUS42 KCHS 011426
RWRCHS

REGIONAL WEATHER ROUNDUP
NATIONAL WEATHER SERVICE CHARLESTON SC
1000 AM EDT WED APR 01 2015

NOTE: "FAIR" INDICATES FEW OR NO CLOUDS BELOW 12,000 FEET WITH NO
SIGNIFICANT WEATHER AND/OR OBSTRUCTIONS TO VISIBILITY.

NOT ALL STATIONS ARE QUALITY CONTROLLED BY THE NATIONAL
WEATHER SERVICE. USE DATA WITH CAUTION...ESPECIALLY
DEWPOINT OBSERVATIONS.

SCZ027-030-031-034>040-042>050-011500-
...SOUTHEAST SOUTH CAROLINA...

CITY           SKY/WX    TMP DP  RH WIND       PRES   REMARKS
N CHARLESTON   LGT RAIN  65  56  72 W12       30.04R
WATERFRONT PRK   N/A     66 N/A N/A W7G15       N/A
MOUNT PLEASANT FAIR      68  55  64 W10G16    30.03R
PINOPOLIS        N/A     70  57  64 CALM      29.94R
MONCKS CORNER  FAIR      70  54  56 NW8       30.03R
SUMMERVILLE    LGT RAIN  64  55  72 W6        30.06R
BEAUFORT MCAS  LGT RAIN  61  57  87 NW9       30.04R FOG
BEAUFORT ARPT  CLOUDY    63  61  94 NW6       30.04S
HILTON HEAD IS PTSUNNY   64  57  77 W12       30.05
WALTERBORO     LGT RAIN  61  55  82 W3        30.04S
ALLENDALE      FAIR      63  59  88 SW5       30.03R

...SOUTHERN MIDLANDS AND PEE DEE...

CITY           SKY/WX    TMP DP  RH WIND       PRES   REMARKS
GEORGETOWN     NOT AVBL
KINGSTREE      NOT AVBL
ORANGEBURG     LGT RAIN  61  55  81 N3        30.04R
BARNWELL       PTSUNNY   66  61  82 W3        30.05R
AIKEN          CLOUDY    63  52  67 W5        30.07R
MANNING        FAIR      64  52  63 NW7       30.04R
COLUMBIA       CLOUDY    66  53  63 N10       30.04R
SUMTER         PTSUNNY   64  48  56 NE13      30.02R
FLORENCE       CLOUDY    59  43  55 NE13      30.04R
MYRTLE BEACH   SUNNY     66  50  55 NE14      30.04R
N MYRTLE BEACH MOSUNNY   63  50  62 NE15      30.03R

$$

GAZ063-065-086>088-099>101-113>116-118-119-134>141-150-011500-
...SOUTHEAST GEORGIA...

CITY           SKY/WX    TMP DP  RH WIND       PRES   REMARKS
SAVANNAH ARPT  LGT RAIN  61  57  87 NW3       30.04R FOG
HUNTER AAF     CLOUDY    64  61  93 W9        30.02R
FORT STEWART   PTSUNNY   66  61  83 W8        30.02S
STATESBORO     CLOUDY    63  59  87 CALM      30.04R
SYLVANIA       LGT RAIN  63  59  87 NW3       30.05R
CLAXTON        PTSUNNY   61  61 100 CALM      30.04R

...CSRA...CENTRAL AND FAR SOUTHEAST GEORGIA...

CITY           SKY/WX    TMP DP  RH WIND       PRES   REMARKS
THOMSON        PTSUNNY   67  60  76 W6        30.08R
AUGUSTA-BUSH   CLOUDY    65  56  72 NW8       30.02S
AUGUSTA-DANIEL CLOUDY    66  56  70 W6        30.03S
SWAINSBORO     CLOUDY    63  63 100 W3        30.06R
VIDALIA        CLOUDY    63  61  94 CALM      30.05R
EASTMAN        FAIR      68  62  80 NW5       30.09R
HAZLEHURST     FAIR      66  63  88 W5        30.05R
ALMA           SUNNY     69  62  78 W7        30.04S
WAYCROSS       MOSUNNY   75  67  75 W7        30.05S
JESUP          PTSUNNY   72  66  83 W6        30.04F
BAXLEY         FAIR      70  64  83 W6        30.04R
BRUNSWICK      PTSUNNY   72  63  73 W13       30.06S
SAINT SIMONS   MOSUNNY   70  63  78 W9G17     30.05S

$$

SCZ027-028-034-036>038-045-046-048>050-GAZ119-141-011500-
...LAKE AND SUPPLEMENTAL COASTAL OBSERVATIONS...

STATION/POSITION TIME  TEMP    WIND        PRES    WAVE   SWELL
                       AIR SEA DIR/SP/G            HT/PER HT/PER/DIR
                 (UTC) (F)     (DEG/KT/KT) (MB)    (FT/S) (FT/S/D)
UPR LAKE MARION  NOT AVBL
WINYAH BAY       1300   65     290/  8     1014.0S
LAKE MURRAY      1400   63      40/  2/  4 1016.9R
ACE BASIN NERRS  NOT AVBL
FORT PULASKI     1400   64 60  300/ 13/ 15 1018.2R
SAPELO ISLAND    1400   69     270/ 10     1017.0S

$$

ANZ835-935-AMZ111-154-330-350-352-354-370-450-454-472-011500-
...C-MAN AND BUOY OBSERVATIONS...

STATION/POSITION TIME  TEMP    WIND        PRES    WAVE   SWELL
                       AIR SEA DIR/SP/G            HT/PER HT/PER/DIR
                 (UTC) (F)     (DEG/KT/KT) (MB)    (FT/S) (FT/S/D)
BUOY 41004       1350   66 68  280/ 16/ 17 1015.6R   4/ 6   2/ 9
BUOY 41008       1350   63 61  250/  8/ 10 1017.7R   2/ 5   2/150/ 5
FOLLY BEACH CMAN 1400   66     280/  7/ 12 1016.7R
CAPERS NEARSHORE NOT AVBL
FRIPP NEARSHORE  1300   62     270/  8/ 10 1016.2R


STATION/POSITION TIME  TEMP    WIND        PRES    WAVE   SWELL
                       AIR SEA DIR/SP/G            HT/PER HT/PER/DIR
                 (UTC) (F)     (DEG/KT/KT) (MB)    (FT/S) (FT/S/D)
5E ST. MARYS GA  1321      62                N/A     2/ 4
FRYING PAN BUOY  1350   62 63   60/ 19/ 23 1016.4R   4/ 7   2/210/ 7
BUOY 41025       NOT AVBL
CAPE LOOKOUT NC  1400   51      30/ 16/ 19 1018.2R
BUOY 41002       1350   69 69  230/ 16/ 19 1015.4S   7/ 7
BUOY 41010       1320   74 75  290/ 16/ 17 1019.3R
ST AUGUSTINE FL  1400   71 62  270/ 10/ 14 1019.9R


$$



USA.gov is the U.S. government's official web portal to all federal, state and local government web resources and services.